Weather History for Nacogdoches, TX

Change the Weather History Date:

Sunday, September 8, 2013

  Actual Average Record
Temperature  
Mean Temperature 80 °F -  
Max Temperature 95 °F 87 °F 95 °F (2013)
Min Temperature 66 °F 66 °F 55 °F (2011)
Cooling Degree Days 16    
Growing Degree Days 30 (Base 50)    
Moisture  
Dew Point 65 °F    
Average Humidity 66    
Maximum Humidity 94    
Minimum Humidity 34    
Precipitation  
Precipitation 0.00 in - - ()
Sea Level Pressure  
Sea Level Pressure 29.97 in    
Wind  
Wind Speed 2 mph (SE)    
Max Wind Speed 12 mph    
Max Gust Speed 16 mph    
Visibility 10 miles    
Events      
Averages and records for this station are not official NWS values.
T = Trace of Precipitation, MM = Missing Value Source: NWS Daily Summary

Daily Weather History Graph

Daily Weather History Graph

Search for Another Location

Airport:

Trip Planner

Search our weather history database for the weather conditions in past years. The results will help you decide how hot, cold, wet, or windy it might be!

Date:

Astronomy

Sep. 08, 2013 Rise Set
Actual Time 6:58 AM CDT 7:33 PM CDT
Civil Twilight 6:34 AM CDT 7:57 PM CDT
Nautical Twilight 6:05 AM CDT 8:26 PM CDT
Astronomical Twilight 5:36 AM CDT 8:55 PM CDT
Moon 10:01 AM CDT (9/8) 9:26 PM CDT (9/8)
Length of Visible Light 13h 23m
Length of Day
12h 34m
Waxing Crescent, 11% of the Moon is Illuminated
Sep 8
Waxing Crescent
Sep 12
First Quarter
Sep 19
Full
Sep 26
Last Quarter
Oct 4
New

Hourly Weather History & Observations

Time (CDT) Temp. Heat Index Dew Point Humidity Pressure Visibility Wind Dir Wind Speed Gust Speed Precip Events Conditions
12:15 AM 71.6 °F - 66.2 °F 83% 30.00 in 10.0 mi Calm Calm - N/A   Clear
12:35 AM 71.6 °F - 66.2 °F 83% 29.99 in 10.0 mi Calm Calm - N/A   Clear
12:55 AM 69.8 °F - 66.2 °F 88% 29.99 in 10.0 mi East 3.5 mph - N/A   Clear
1:15 AM 69.8 °F - 66.2 °F 88% 29.98 in 10.0 mi Calm Calm - N/A   Clear
1:35 AM 71.6 °F - 68.0 °F 88% 29.99 in 10.0 mi Calm Calm - N/A   Clear
1:55 AM 69.8 °F - 66.2 °F 88% 29.99 in 10.0 mi Calm Calm - N/A   Clear
2:15 AM 69.8 °F - 66.2 °F 88% 29.98 in 10.0 mi Calm Calm - N/A   Clear
2:35 AM 69.8 °F - 66.2 °F 88% 29.98 in 10.0 mi Calm Calm - N/A   Clear
2:55 AM 68.0 °F - 66.2 °F 94% 29.97 in 10.0 mi Calm Calm - N/A   Clear
3:15 AM 68.0 °F - 66.2 °F 94% 29.97 in 10.0 mi Calm Calm - N/A   Clear
3:35 AM 69.8 °F - 66.2 °F 88% 29.97 in 10.0 mi Calm Calm - N/A   Clear
3:55 AM 68.0 °F - 66.2 °F 94% 29.97 in 10.0 mi Calm Calm - N/A   Clear
4:15 AM 68.0 °F - 66.2 °F 94% 29.97 in 10.0 mi Calm Calm - N/A   Clear
4:35 AM 68.0 °F - 66.2 °F 94% 29.97 in 10.0 mi East 3.5 mph - N/A   Clear
4:55 AM 68.0 °F - 66.2 °F 94% 29.97 in 10.0 mi Calm Calm - N/A   Clear
5:15 AM 66.2 °F - 64.4 °F 94% 29.97 in 10.0 mi Calm Calm - N/A   Clear
5:35 AM 66.2 °F - 64.4 °F 94% 29.98 in 10.0 mi Calm Calm - N/A   Clear
5:55 AM 66.2 °F - 64.4 °F 94% 29.99 in 10.0 mi Calm Calm - N/A   Clear
6:15 AM 66.2 °F - 64.4 °F 94% 30.00 in 9.0 mi Calm Calm - N/A   Clear
6:35 AM 66.2 °F - 64.4 °F 94% 30.00 in 10.0 mi Calm Calm - N/A   Clear
6:55 AM 66.2 °F - 64.4 °F 94% 30.00 in 10.0 mi Calm Calm - N/A   Clear
7:15 AM 66.2 °F - 62.6 °F 88% 30.00 in 10.0 mi Calm Calm - N/A   Clear
7:35 AM 66.2 °F - 64.4 °F 94% 30.01 in 10.0 mi Calm Calm - N/A   Clear
7:55 AM 68.0 °F - 66.2 °F 94% 30.02 in 10.0 mi Calm Calm - N/A   Clear
8:15 AM 69.8 °F - 68.0 °F 94% 30.02 in 10.0 mi Calm Calm - N/A   Clear
8:35 AM 73.4 °F - 69.8 °F 88% 30.02 in 10.0 mi Calm Calm - N/A   Clear
8:55 AM 75.2 °F - 71.6 °F 89% 30.03 in 10.0 mi Calm Calm - N/A   Clear
9:15 AM 77.0 °F - 69.8 °F 78% 30.03 in 10.0 mi Calm Calm - N/A   Clear
9:35 AM 78.8 °F - 71.6 °F 78% 30.03 in 10.0 mi West 5.8 mph - N/A   Clear
9:55 AM 80.6 °F 84.6 °F 71.6 °F 74% 30.03 in 10.0 mi Calm Calm - N/A   Clear
10:15 AM 80.6 °F 84.6 °F 71.6 °F 74% 30.02 in 10.0 mi Calm Calm - N/A   Clear
10:35 AM 82.4 °F 86.3 °F 69.8 °F 66% 30.02 in 10.0 mi WNW 3.5 mph - N/A   Clear
10:55 AM 84.2 °F 89.6 °F 71.6 °F 66% 30.02 in 10.0 mi Calm Calm - N/A   Clear
11:15 AM 86.0 °F 91.8 °F 71.6 °F 62% 30.01 in 10.0 mi East 5.8 mph - N/A   Partly Cloudy
11:35 AM 87.8 °F 92.6 °F 69.8 °F 55% 30.01 in 10.0 mi WSW 3.5 mph - N/A   Scattered Clouds
11:55 AM 87.8 °F 92.6 °F 69.8 °F 55% 30.01 in 10.0 mi South 3.5 mph - N/A   Scattered Clouds
12:15 PM 89.6 °F 94.7 °F 69.8 °F 52% 30.00 in 10.0 mi East 8.1 mph - N/A   Clear
12:35 PM 87.8 °F 91.4 °F 68.0 °F 52% 30.00 in 10.0 mi East 3.5 mph - N/A   Scattered Clouds
12:55 PM 89.6 °F 93.4 °F 68.0 °F 49% 29.99 in 10.0 mi South 8.1 mph - N/A   Scattered Clouds
1:15 PM 89.6 °F 92.2 °F 66.2 °F 46% 29.98 in 10.0 mi SE 10.4 mph - N/A   Partly Cloudy
1:35 PM 91.4 °F 94.0 °F 66.2 °F 43% 29.97 in 10.0 mi SE 5.8 mph - N/A   Clear
1:55 PM 91.4 °F 93.2 °F 64.4 °F 41% 29.97 in 10.0 mi South 6.9 mph - N/A   Partly Cloudy
2:15 PM 93.2 °F 94.1 °F 62.6 °F 36% 29.96 in 10.0 mi SE 6.9 mph - N/A   Clear
2:35 PM 95.0 °F 96.0 °F 62.6 °F 34% 29.95 in 10.0 mi SE 11.5 mph - N/A   Clear
2:55 PM 93.2 °F 94.1 °F 62.6 °F 36% 29.94 in 10.0 mi SSE 9.2 mph - N/A   Scattered Clouds
3:15 PM 95.0 °F 97.0 °F 64.4 °F 36% 29.93 in 10.0 mi ENE 5.8 mph 16.1 mph N/A   Scattered Clouds
3:35 PM 95.0 °F 96.0 °F 62.6 °F 34% 29.93 in 10.0 mi ESE 9.2 mph - N/A   Partly Cloudy
3:55 PM 95.0 °F 96.0 °F 62.6 °F 34% 29.92 in 10.0 mi South 6.9 mph - N/A   Clear
4:15 PM 93.2 °F 94.1 °F 62.6 °F 36% 29.92 in 10.0 mi SSW 4.6 mph - N/A   Clear
4:35 PM 93.2 °F 94.1 °F 62.6 °F 36% 29.91 in 10.0 mi ESE 6.9 mph - N/A   Partly Cloudy
4:55 PM 93.2 °F 94.1 °F 62.6 °F 36% 29.90 in 10.0 mi ESE 5.8 mph - N/A   Clear
5:15 PM 93.2 °F 94.1 °F 62.6 °F 36% 29.90 in 10.0 mi SE 6.9 mph - N/A   Clear
5:35 PM 95.0 °F 97.0 °F 64.4 °F 36% 29.90 in 10.0 mi ESE 10.4 mph - N/A   Partly Cloudy
5:55 PM 93.2 °F 94.1 °F 62.6 °F 36% 29.90 in 10.0 mi ESE 8.1 mph - N/A   Partly Cloudy
6:15 PM 93.2 °F 94.9 °F 64.4 °F 38% 29.90 in 10.0 mi South 6.9 mph - N/A   Clear
6:35 PM 91.4 °F 93.2 °F 64.4 °F 41% 29.91 in 10.0 mi SSE 8.1 mph - N/A   Clear
6:55 PM 91.4 °F 92.1 °F 62.6 °F 38% 29.91 in 10.0 mi SSE 8.1 mph - N/A   Clear
7:15 PM 89.6 °F 90.1 °F 62.6 °F 40% 29.92 in 10.0 mi SSE 5.8 mph - N/A   Clear
7:35 PM 87.8 °F 87.6 °F 60.8 °F 40% 29.92 in 10.0 mi SSE 5.8 mph - N/A   Clear
7:55 PM 87.8 °F 87.6 °F 60.8 °F 40% 29.93 in 10.0 mi SSE 5.8 mph - N/A   Clear
8:15 PM 84.2 °F 84.4 °F 60.8 °F 45% 29.93 in 10.0 mi SE 4.6 mph - N/A   Clear
8:35 PM 82.4 °F 82.9 °F 60.8 °F 48% 29.94 in 10.0 mi Calm Calm - N/A   Clear
8:55 PM 80.6 °F 81.5 °F 60.8 °F 51% 29.94 in 10.0 mi SE 3.5 mph - N/A   Clear
9:15 PM 78.8 °F - 62.6 °F 57% 29.95 in 10.0 mi Calm Calm - N/A   Clear
9:35 PM 77.0 °F - 62.6 °F 61% 29.95 in 10.0 mi Calm Calm - N/A   Clear
9:55 PM 75.2 °F - 62.6 °F 65% 29.95 in 10.0 mi Calm Calm - N/A   Clear
10:15 PM 75.2 °F - 62.6 °F 65% 29.96 in 10.0 mi Calm Calm - N/A   Clear
10:35 PM 77.0 °F - 62.6 °F 61% 29.97 in 10.0 mi South 3.5 mph - N/A   Clear
10:55 PM 77.0 °F - 64.4 °F 65% 29.96 in 10.0 mi SSW 4.6 mph - N/A   Clear
11:15 PM 77.0 °F - 66.2 °F 69% 29.97 in 10.0 mi SSW 5.8 mph - N/A   Clear
11:35 PM 75.2 °F - 66.2 °F 73% 29.97 in 10.0 mi SSW 3.5 mph - N/A   Clear
11:55 PM 77.0 °F - 66.2 °F 69% 29.97 in 10.0 mi South 3.5 mph - N/A   Clear